FW9064 Weather Reports


Display with metric or nautical units.
time (UTC)temp
F
wind
direction
speed
MPH
gust
MPH
rain 1hr
in
rain 24hr
in
rain mn
in
humidity
%
barometer
mb
20260504173334 79 129 2.0 2.0 0.00 0.00 0.00 43 1016.6
20260504172831 79 132 1.0 2.0 0.00 0.00 0.00 45 1016.5
20260504172328 79 115 0.0 0.0 0.00 0.00 0.00 46 1016.8
20260504171824 78 103 0.0 0.0 0.00 0.00 0.00 44 1016.6
20260504171321 78 178 1.0 2.0 0.00 0.00 0.00 47 1016.9
20260504170819 78 124 0.0 1.0 0.00 0.00 0.00 44 1017.1
20260504170315 78 105 1.0 2.0 0.00 0.00 0.00 42 1017.1
20260504160233 76 114 0.0 0.0 0.00 0.00 0.00 47 1017.9
20260504150659 71 103 1.0 1.0 0.00 0.00 0.00 58 1018.1
20260504150156 70 96 0.0 1.0 0.00 0.00 0.00 60 1018.1
20260504141124 66 97 0.0 0.0 0.00 0.00 0.00 65 1018.4
20260504140621 65 138 1.0 1.0 0.00 0.00 0.00 64 1018.4
20260504140117 65 108 0.0 0.0 0.00 0.00 0.00 66 1018.4
20260504130545 57 108 0.0 0.0 0.00 0.00 0.00 88 1018.5
20260504110433 41 110 0.0 0.0 0.00 0.00 0.00 99 1018.0
20260504100349 42 109 0.0 0.0 0.00 0.00 0.00 99 1017.7
20260504081742 43 113 0.0 0.0 0.00 0.00 0.00 99 1017.6
20260504081239 43 110 0.0 0.0 0.00 0.00 0.00 99 1017.6
20260504080736 43 110 0.0 0.0 0.00 0.00 0.00 99 1017.8
20260504080232 43 110 0.0 0.0 0.00 0.00 0.00 99 1018.0
20260504070200 44 111 0.0 0.0 0.00 0.00 0.00 99 1017.9
20260504060120 44 110 0.0 0.0 0.00 0.00 0.00 98 1018.7
20260504050548 46 110 0.0 0.0 0.00 0.00 0.00 98 1018.7
20260504045542 46 110 0.0 0.0 0.00 0.00 0.00 97 1018.9
20260504045037 46 108 0.0 0.0 0.00 0.00 0.00 97 1018.8
20260504044535 46 110 0.0 0.0 0.00 0.00 0.00 97 1018.9
20260504044032 47 111 0.0 0.0 0.00 0.00 0.00 97 1018.9
20260504043529 47 112 0.0 0.0 0.00 0.00 0.00 97 1018.9
20260504043026 47 110 0.0 0.0 0.00 0.00 0.00 97 1019.1
20260504042523 47 112 0.0 0.0 0.00 0.00 0.00 96 1019.1
20260504042020 47 110 0.0 0.0 0.00 0.00 0.00 96 1019.3
20260504041516 47 114 0.0 0.0 0.00 0.00 0.00 96 1019.0
20260504041012 47 111 0.0 0.0 0.00 0.00 0.00 96 1019.0
20260504040510 47 110 0.0 0.0 0.00 0.00 0.00 96 1019.0
20260504040006 48 110 0.0 0.0 0.00 0.00 0.00 95 1019.1
20260504035504 48 114 0.0 0.0 0.00 0.00 0.00 95 1019.3
20260504034959 48 110 0.0 0.0 0.00 0.00 0.00 95 1019.3
20260504034457 48 111 0.0 0.0 0.00 0.00 0.00 95 1019.1
20260504033954 48 111 0.0 0.0 0.00 0.00 0.00 94 1019.5
20260504033452 48 111 0.0 0.0 0.00 0.00 0.00 94 1019.4
20260504032949 49 110 0.0 0.0 0.00 0.00 0.00 94 1019.5
20260504032446 49 110 0.0 0.0 0.00 0.00 0.00 93 1019.3
20260504031942 49 110 0.0 0.0 0.00 0.00 0.00 93 1019.5
20260504031439 49 112 0.0 0.0 0.00 0.00 0.00 93 1019.4
20260504030936 50 112 0.0 0.0 0.00 0.00 0.00 92 1019.4
20260504030433 50 113 0.0 0.0 0.00 0.00 0.00 92 1019.1
20260504025929 50 111 0.0 0.0 0.00 0.00 0.00 92 1019.2
20260504025426 50 110 0.0 0.0 0.00 0.00 0.00 92 1019.0
20260504024923 50 110 0.0 0.0 0.00 0.00 0.00 91 1019.1
20260504024420 50 111 0.0 0.0 0.00 0.00 0.00 91 1019.0
20260504023917 51 112 0.0 0.0 0.00 0.00 0.00 90 1018.8
20260504023413 51 111 0.0 0.0 0.00 0.00 0.00 89 1019.0
20260504022909 51 112 0.0 0.0 0.00 0.00 0.00 89 1018.8
20260504022406 51 111 0.0 0.0 0.00 0.00 0.00 89 1019.0
20260504021902 51 111 0.0 0.0 0.00 0.00 0.00 89 1018.8
20260504021400 51 111 0.0 0.0 0.00 0.00 0.00 88 1018.7
20260504020857 52 111 0.0 0.0 0.00 0.00 0.00 88 1018.7
20260504020353 52 115 0.0 0.0 0.00 0.00 0.00 87 1019.0
20260504015849 53 114 0.0 0.0 0.00 0.00 0.00 87 1018.8
20260504015346 53 111 0.0 0.0 0.00 0.00 0.00 86 1018.8
20260504014842 53 114 0.0 0.0 0.00 0.00 0.00 85 1018.7
20260504014338 53 110 0.0 0.0 0.00 0.00 0.00 85 1018.6
20260504013836 54 111 0.0 0.0 0.00 0.00 0.00 84 1018.5
20260504013334 54 114 0.0 0.0 0.00 0.00 0.00 84 1018.2
20260504012830 54 115 0.0 0.0 0.00 0.00 0.00 83 1018.4
20260504012328 54 111 0.0 0.0 0.00 0.00 0.00 82 1018.2
20260504011825 55 111 0.0 0.0 0.00 0.00 0.00 80 1018.4
20260504011321 55 107 0.0 0.0 0.00 0.00 0.00 80 1018.5
20260504010817 55 110 0.0 0.0 0.00 0.00 0.00 79 1018.3
20260504010313 56 111 0.0 0.0 0.00 0.00 0.00 79 1018.2
20260504005810 56 111 0.0 0.0 0.00 0.00 0.00 78 1018.1
20260504005307 57 112 0.0 0.0 0.00 0.00 0.00 77 1018.2
20260504004805 57 111 0.0 0.0 0.00 0.00 0.00 76 1017.9
20260504004302 58 111 0.0 0.0 0.00 0.00 0.00 75 1018.0
20260504003758 59 109 0.0 0.0 0.00 0.00 0.00 74 1018.1
20260504003255 59 111 0.0 0.0 0.00 0.00 0.00 73 1018.0
20260504002751 60 110 0.0 0.0 0.00 0.00 0.00 71 1018.1
20260504002249 60 111 0.0 0.0 0.00 0.00 0.00 70 1017.9
20260504001746 61 111 0.0 0.0 0.00 0.00 0.00 68 1018.1
20260504001243 61 110 0.0 0.0 0.00 0.00 0.00 68 1017.9
20260504000740 62 112 0.0 0.0 0.00 0.00 0.00 67 1017.9
20260504000237 63 111 0.0 0.0 0.00 0.00 0.00 65 1017.8
20260503235735 63 111 0.0 0.0 0.00 0.00 0.00 64 1018.0
20260503235232 64 111 0.0 0.0 0.00 0.00 0.00 62 1017.7
20260503234730 65 112 0.0 0.0 0.00 0.00 0.00 60 1017.8
20260503234228 66 112 0.0 0.0 0.00 0.00 0.00 57 1017.6
20260503233725 66 112 0.0 0.0 0.00 0.00 0.00 53 1017.8
20260503233220 66 113 0.0 0.0 0.00 0.00 0.00 49 1017.8
20260503232717 67 112 0.0 0.0 0.00 0.00 0.00 48 1017.7
20260503232214 67 117 0.0 0.0 0.00 0.00 0.00 47 1018.0
20260503231713 67 114 0.0 0.0 0.00 0.00 0.00 50 1017.9
20260503231209 67 115 0.0 0.0 0.00 0.00 0.00 47 1017.9
20260503230705 68 111 0.0 0.0 0.00 0.00 0.00 44 1017.8
20260503230203 68 112 0.0 0.0 0.00 0.00 0.00 44 1018.1
20260503225700 68 112 0.0 0.0 0.00 0.00 0.00 46 1017.9
20260503225159 68 112 0.0 0.0 0.00 0.00 0.00 43 1017.9
20260503224657 68 115 0.0 0.0 0.00 0.00 0.00 42 1017.9
20260503224155 69 113 0.0 0.0 0.00 0.00 0.00 45 1018.1
20260503223653 69 115 0.0 0.0 0.00 0.00 0.00 45 1018.1
20260503223149 70 113 0.0 0.0 0.00 0.00 0.00 41 1018.1
20260503222646 70 90 1.0 1.0 0.00 0.00 0.00 38 1018.1
20260503222144 70 109 0.0 0.0 0.00 0.00 0.00 39 1018.1
20260503221642 70 122 0.0 0.0 0.00 0.00 0.00 41 1018.1
20260503221139 70 113 0.0 1.0 0.00 0.00 0.00 41 1018.2
20260503220636 70 111 1.0 1.0 0.00 0.00 0.00 41 1018.3
20260503220132 70 121 1.0 1.0 0.00 0.00 0.00 42 1018.3
20260503215630 71 103 0.0 1.0 0.00 0.00 0.00 40 1018.3
20260503215126 71 113 1.0 1.0 0.00 0.00 0.00 40 1018.2
20260503214625 70 114 0.0 0.0 0.00 0.00 0.00 41 1018.2
20260503214120 70 114 1.0 1.0 0.00 0.00 0.00 40 1018.6
20260503213614 70 107 0.0 1.0 0.00 0.00 0.00 40 1018.4
20260503213110 70 96 0.0 1.0 0.00 0.00 0.00 37 1018.5
20260503212608 71 108 0.0 1.0 0.00 0.00 0.00 40 1018.8
20260503212105 71 113 0.0 0.0 0.00 0.00 0.00 41 1018.7
20260503211603 71 102 0.0 1.0 0.00 0.00 0.00 38 1018.6
20260503211057 71 149 0.0 0.0 0.00 0.00 0.00 43 1018.7
20260503210555 70 112 1.0 1.0 0.00 0.00 0.00 43 1018.7
20260503210050 70 106 1.0 2.0 0.00 0.00 0.00 38 1018.7
20260503205547 71 103 2.0 2.0 0.00 0.00 0.00 40 1018.8
20260503205043 70 110 1.0 1.0 0.00 0.00 0.00 43 1018.9
20260503204541 70 109 1.0 1.0 0.00 0.00 0.00 45 1019.0
20260503204038 71 90 2.0 3.0 0.00 0.00 0.00 39 1019.1
20260503203535 70 219 3.0 5.0 0.00 0.00 0.00 39 1019.1
20260503203032 70 124 2.0 2.0 0.00 0.00 0.00 45 1019.3
20260503202530 69 100 2.0 2.0 0.00 0.00 0.00 41 1019.1
20260503202027 70 114 1.0 1.0 0.00 0.00 0.00 42 1019.3
20260503201526 70 103 0.0 1.0 0.00 0.00 0.00 42 1019.5
20260503201022 70 117 1.0 2.0 0.00 0.00 0.00 45 1019.7
20260503200518 69 115 1.0 1.0 0.00 0.00 0.00 43 1019.7
20260503200015 70 104 2.0 2.0 0.00 0.00 0.00 40 1019.7
20260503195513 70 83 1.0 1.0 0.00 0.00 0.00 39 1019.6
20260503195009 70 84 1.0 2.0 0.00 0.00 0.00 38 1019.8
20260503194507 71 91 3.0 5.0 0.00 0.00 0.00 37 1020.1
20260503194006 71 109 1.0 1.0 0.00 0.00 0.00 39 1020.2
20260503193503 70 106 0.0 1.0 0.00 0.00 0.00 38 1020.1
20260503192958 71 107 1.0 1.0 0.00 0.00 0.00 36 1020.2
20260503192455 72 118 1.0 1.0 0.00 0.00 0.00 37 1020.3
20260503191950 72 107 0.0 0.0 0.00 0.00 0.00 40 1020.3
20260503191448 71 104 1.0 2.0 0.00 0.00 0.00 37 1020.5
20260503190944 71 115 0.0 1.0 0.00 0.00 0.00 42 1020.7
20260503190442 72 109 2.0 2.0 0.00 0.00 0.00 39 1020.7
20260503185939 71 110 1.0 1.0 0.00 0.00 0.00 41 1020.9
20260503185435 71 86 2.0 2.0 0.00 0.00 0.00 37 1021.0
20260503184934 71 104 2.0 3.0 0.00 0.00 0.00 39 1021.0
20260503184431 72 114 3.0 3.0 0.00 0.00 0.00 40 1021.2
20260503183927 71 114 0.0 1.0 0.00 0.00 0.00 38 1021.0
20260503183424 72 182 2.0 5.0 0.00 0.00 0.00 39 1021.1
20260503182921 71 112 2.0 2.0 0.00 0.00 0.00 41 1021.1
20260503182420 71 113 2.0 2.0 0.00 0.00 0.00 37 1021.3
20260503181917 70 64 2.0 2.0 0.00 0.00 0.00 36 1021.4
20260503181414 71 103 1.0 1.0 0.00 0.00 0.00 38 1021.4
20260503180910 70 104 1.0 1.0 0.00 0.00 0.00 37 1021.5
20260503180408 71 52 2.0 3.0 0.00 0.00 0.00 39 1021.5
20260503175904 71 113 1.0 1.0 0.00 0.00 0.00 40 1021.7
20260503175403 71 120 0.0 0.0 0.00 0.00 0.00 41 1021.7
20260503174858 69 88 4.0 5.0 0.00 0.00 0.00 38 1021.7
20260503174356 69 102 1.0 2.0 0.00 0.00 0.00 39 1021.6
20260503173851 70 107 0.0 1.0 0.00 0.00 0.00 38 1021.6